Regional Weather Roundup
Issued by NWS

Home | Current Version | Previous Version | Text Only | Print | Product List | Glossary On
Versions: 1 2 3 4 5 6 7 8 9 10 11 12 13 14 15 16 17 18 19 20 21 22 23 24 25 26 27 28 29 30 31 32 33 34 35 36 37 38 39 40 41 42 43 44 45 46 47 48 49 50
000
ASUS43 KLMK 280802
RWRKY
KENTUCKY REGIONAL WEATHER ROUNDUP
NATIONAL WEATHER SERVICE LOUISVILLE KY
400 AM EDT TUE APR 28 2015

NOTE "FAIR" INDICATES FEW OR NO CLOUDS BELOW 12,000 FEET
WITH NO SIGNIFICANT WEATHER AND/OR OBSTRUCTIONS TO VISIBILITY.

KYZ001>023-026-027-061>063-070>075-280900-
WESTERN AND SOUTH CENTRAL KENTUCKY

CITY           SKY/WX    TMP DP  RH WIND       PRES   REMARKS
PADUCAH        PTCLDY    46  39  76 N5        30.03F
HENDERSON      CLEAR     46  37  71 NE5       30.05S
OWENSBORO      CLEAR     48  38  68 NE6       30.06R
HOPKINSVILLE   CLEAR     46  41  83 NE8       30.00F
BOWLING GREEN  CLEAR     48  38  68 NE6       30.02S
GLASGOW        NOT AVBL
$$

KYZ024-025-028>034-038-045-046-053-280900-
NORTH CENTRAL KENTUCKY

CITY           SKY/WX    TMP DP  RH WIND       PRES   REMARKS
LOUISVILLE/SDF CLEAR     48  38  68 NE5       30.07R
LOUISVILLE/LOU CLEAR     46  38  73 NE3       30.07R
FORT KNOX      CLEAR     46  38  72 E7        30.04R
$$

KYZ035>037-039>044-047>052-055>060-089>105-280900-
NORTHEAST KENTUCKY

CITY           SKY/WX    TMP DP  RH WIND       PRES   REMARKS
LEXINGTON      CLEAR     40  36  86 NE7       30.05R
COVINGTON      CLEAR     45  35  68 E7        30.07R
FRANKFORT      CLEAR     45  36  70 NE3       30.05R
$$

KYZ054-064>069-076>088-106>120-280900-
SOUTHEAST KENTUCKY

CITY           SKY/WX    TMP DP  RH WIND       PRES   REMARKS
JACKSON        CLEAR     43  35  73 CALM      30.02R
LONDON         CLEAR     45  34  65 N5        30.01F
SOMERSET       NOT AVBL
MIDDLESBORO    PTCLDY    38  37  97 CALM      30.00S
MONTICELLO     SUNNY     44  40  86 CALM      30.04R
$$




USA.gov is the U.S. government's official web portal to all federal, state and local government web resources and services.